Location: ??
(35.5052°N, 139.7262°E)
Time: 01:12:54
(UTC+00:00)

Cosmos 1570 Rocket - Pass Details

Date: 20 June 2021
Orbit: 763 x 788 km, 74.1° (Epoch: 05 August)

Event Time Altitude Azimuth Distance (km) Brightness Sun altitude
Exits shadow 16:05:32 78° 26° (NNE) 785 4.0 -27.9°
Drops below altitude 10° 16:10:23 10° 18° (NNE) 2,302 7.5 -27.5°
Sets 16:12:46 0° 18° (NNE) 3,231 8.5 -27.3°
